Preview of NWS' New Version of Forecast
This preview is not operational and should not be used for support decisions.

Regional Weather Roundup (RWR)

Issued by National Weather Service (NWS)

                            
000
ASUS45 KBOI 241410
RWRID 

IDAHO REGIONAL WEATHER ROUNDUP
NATIONAL WEATHER SERVICE BOISE ID
800 AM MDT MON JUN 24 2019

NOTE: "FAIR" INDICATES FEW OR NO CLOUDS BELOW 12000 FEET
WITH NO SIGNIFICANT WEATHER AND/OR OBSTRUCTIONS TO VISIBILITY

IDZ012-014-241500-
SOUTHWEST IDAHO

  
CITY           SKY/WX    TMP DP  RH WIND       PRES   REMARKS
BOISE          SUNNY     55  40  56 CALM      30.01R                  
CALDWELL       SUNNY     57  41  55 W5        30.01S                  
MOUNTAIN HOME  SUNNY     55  38  53 NW6       30.00S                  
$$

IDZ016-017-241500-
SOUTHCENTRAL IDAHO

  
CITY           SKY/WX    TMP DP  RH WIND       PRES   REMARKS
BURLEY         SUNNY     55  40  56 SW9       30.01R                  
JEROME         SUNNY     54  42  64 SW6       30.03R                  
TWIN FALLS     SUNNY     58  37  45 SW10      30.03R                  
$$

IDZ019>023-241500-
SOUTHEAST IDAHO

  
CITY           SKY/WX    TMP DP  RH WIND       PRES   REMARKS
IDAHO FALLS    SUNNY     52  37  56 SW17      30.01R                  
POCATELLO      MOSUNNY   57  37  47 SW12      30.02R                  
REXBURG        SUNNY     54  36  50 SW10      30.00R                  
$$

IDZ006-010-011-018-031-032-241500-
CENTRAL IDAHO MOUNTAINS

  
CITY           SKY/WX    TMP DP  RH WIND       PRES   REMARKS
MCCALL         MOSUNNY   44  36  73 CALM      30.01S                  
HAILEY         SUNNY     46  36  66 W3        30.04S                  
STANLEY          N/A     39  28  64 VRB5      30.07S                  
SALMON         SUNNY     49  40  71 N5        30.01S                  
CHALLIS        SUNNY     51  33  50 SE3       30.01S                  
$$

IDZ002-004-006-007-026-241500-
NORTHERN IDAHO

  
CITY           SKY/WX    TMP DP  RH WIND       PRES   REMARKS
LEWISTON       PTSUNNY   58  43  57 N3        29.98R                  
LOWELL           N/A     51  48  89 CALM      30.01S                  
COEUR D'ALENE  SUNNY     53  43  68 S12       29.98R                  
MULLAN PASS    PTSUNNY   39  34  82 CALM      30.00R                  
$$